[[{"header":{"parameterUnit":"m.s-1","parameterCategory":1,"la1":30.2991,"la2":30.254,"lo1":-89.0895,"lo2":-89.0444,"dy":0.0017,"dx":0.0017,"nx":28,"ny":28,"refTime":"2024-06-28T03:00:00:Z","depth":0,"parameterNumber":2,"parameterNumberName":"U-component_of_WINDS"},"data":[0,0,0,0,0,0,0,0,0,0,0,0,0,0,0,0,0,0,0,0,0,0,0,0,0,0,0,0,0,0,0,0,0,0,0,0,0,0,0,0,0,0,0,0,0,0,0,0,0,0,0,0,0,0,0,0,0,0,0.212,0.2121,0,0.2189,0.219,0.2191,0.2261,0.2262,0.2263,0.2264,0.2335,0.2336,0.2337,0,0,0,0,0,0,0,0,0,0,0,0,0,0.2049,0.205,0.212,0.2121,0.2122,0.2189,0.219,0.2191,0.2261,0.2262,0.2263,0.2264,0.2335,0.2336,0.2337,0,0,0,0,0,0,0,0,0,0,0,0,0,0.2095,0.2051,0.212,0.2165,0.2169,0.2189,0.219,0.2191,0.226,0.2262,0.2263,0.2265,0.2334,0.2336,0.2337,0.2318,0,0,0.2342,0.2343,0,0,0,0,0,0,0,0,0.2093,0.2098,0.2157,0.2161,0.2167,0.2218,0.2191,0.2234,0.226,0.2226,0.2264,0.2265,0.2295,0.23,0.231,0.2322,0.2325,0.2342,0.2343,0.2344,0.2344,0,0,0,0,0,0,0,0.2089,0.2095,0.2147,0.2158,0.2164,0.2182,0.219,0.22,0.2252,0.2229,0.2234,0.2241,0.2298,0.2308,0.2312,0.2326,0.2342,0.2344,0.2344,0.2345,0.2327,0.2326,0,0,0,0,0,0,0.2079,0.2092,0.2145,0.2149,0.2132,0.2182,0.2191,0.22,0.2252,0.2261,0.224,0.2244,0.2305,0.231,0.2315,0.2297,0.2344,0.2345,0.2346,0.2328,0.2327,0.2325,0,0,0,0,0,0,0.2077,0.2083,0.2142,0.2122,0.2131,0.2181,0.2191,0.2201,0.2211,0.226,0.227,0.2241,0.2306,0.2313,0.2317,0.23,0.2346,0.2347,0.233,0.2328,0.2326,0.226,0,0,0,0,0,0,0.2075,0.2082,0.2075,0.2122,0.2132,0.2143,0.219,0.2201,0.2213,0.2219,0.2263,0.2272,0.2308,0.2314,0.2319,0.2303,0.2348,0.2332,0.2329,0.2327,0.2264,0.2256,0.2249,0,0,0,0,0,0.2072,0.2054,0.2074,0.208,0.2124,0.2142,0.2148,0.2189,0.2211,0.2205,0.2237,0.2271,0.2301,0.2314,0.232,0.2304,0.2333,0.233,0.2327,0.2267,0.2257,0.2249,0,0,0,0,0,0,0.2004,0.206,0.2084,0.208,0.2105,0.2154,0.2147,0.2177,0.2197,0.2202,0.2253,0.2262,0.2261,0.2283,0.2297,0.2289,0.2322,0.232,0.2275,0.2266,0.2259,0.2253,0.235,0,0,0,0,0,0.1988,0.1998,0.2047,0.2038,0.205,0.2096,0.2105,0.2135,0.2163,0.2175,0.2207,0.2234,0.225,0.2259,0.2276,0.2267,0.2278,0.2259,0.2252,0.2246,0.2243,0.2241,0.2234,0.2315,0.2315,0.2315,0,0,0.1956,0.1988,0.1991,0.2025,0.2049,0.2058,0.2104,0.2112,0.2119,0.2176,0.2183,0.2207,0.224,0.2238,0.2239,0.2257,0.2223,0.2242,0.2236,0.2237,0.2237,0.2229,0.2223,0.2313,0.2313,0.2314,0,0,0.1902,0.1927,0.1923,0.1946,0.1981,0.2011,0.201,0.2054,0.2073,0.208,0.2123,0.2133,0.2159,0.2181,0.2196,0.2151,0.2183,0.2155,0.2116,0.2114,0.2108,0.2102,0.2087,0.2081,0.2153,0.2152,0.2152,0,0.1857,0.1873,0.1917,0.1922,0.1937,0.1988,0.1985,0.2005,0.2043,0.2052,0.2071,0.2106,0.2132,0.2136,0.2125,0.2135,0.2136,0.2151,0.2105,0.21,0.2096,0.2082,0.2076,0.2149,0.2149,0.215,0.215,0,0.1817,0.1827,0.182,0.1856,0.1869,0.187,0.1915,0.1923,0.1952,0.1981,0.1988,0.2021,0.2047,0.205,0.2078,0.2058,0.2068,0.2095,0.213,0.2083,0.2071,0.2066,0.2144,0.2145,0.2146,0.2147,0,0,0.1721,0.1783,0.1779,0.1797,0.184,0.1849,0.1852,0.1877,0.1883,0.1908,0.1913,0.1934,0.196,0.1976,0.2007,0.2005,0.1969,0.2033,0.2034,0.202,0.1951,0.193,0.1924,0.199,0.1989,0.1989,0.1948,0,0.1675,0.1685,0.1725,0.1723,0.1733,0.1783,0.1786,0.1813,0.184,0.1853,0.1884,0.1898,0.193,0.1941,0.1941,0.1973,0.1956,0.1976,0.1996,0.1996,0.1986,0.1917,0.1896,0.1856,0.1944,0.1943,0.1942,0,0.1623,0.1645,0.1643,0.1687,0.1693,0.1695,0.1722,0.1733,0.1765,0.1785,0.1804,0.1839,0.1846,0.1877,0.1889,0.1902,0.1912,0.1929,0.1929,0.1933,0.1966,0.192,0.1844,0.1838,0.1935,0.1936,0.1936,0,0.1554,0.1583,0.1587,0.16,0.1651,0.1651,0.1673,0.1706,0.1718,0.1742,0.1751,0.1774,0.1787,0.1805,0.1845,0.1864,0.1852,0.1887,0.187,0.1869,0.1865,0.1865,0.1791,0.187,0.1871,0.1871,0.1871,0,0.1499,0.1496,0.1557,0.1559,0.1558,0.1605,0.1602,0.1628,0.1658,0.1666,0.171,0.1717,0.177,0.1783,0.1815,0.182,0.1825,0.1842,0.1851,0.1838,0.1836,0.1846,0.185,0.1869,0.187,0.187,0.187,0,0.1422,0.1462,0.1469,0.1517,0.1529,0.1526,0.1567,0.1571,0.1602,0.1612,0.1617,0.1664,0.1682,0.1724,0.1753,0.1775,0.1772,0.1787,0.1761,0.1766,0.1747,0.1749,0.1677,0.167,0.1754,0.1753,0.1752,0,0.1384,0.1383,0.1431,0.144,0.1459,0.1473,0.1486,0.1532,0.1544,0.1581,0.1581,0.1602,0.1622,0.1649,0.1686,0.1709,0.1725,0.1699,0.1729,0.1717,0.1726,0.1725,0.1726,0.1692,0.1691,0.169,0.1689,0,0.1312,0.1333,0.135,0.1375,0.139,0.1411,0.1435,0.144,0.1492,0.1504,0.1523,0.1538,0.1568,0.1589,0.1618,0.164,0.1673,0.1679,0.1677,0.1664,0.1649,0.1658,0.1743,0.1681,0.1682,0.1682,0.1683,0.1683,0.1254,0.1257,0.1291,0.1309,0.1332,0.1354,0.1361,0.1392,0.1409,0.1437,0.1463,0.148,0.1513,0.1554,0.1575,0.1588,0.1605,0.1601,0.16,0.1599,0.1594,0.1647,0.1594,0.1594,0.1594,0.1595,0.1595,0,0.1186,0.1211,0.1227,0.126,0.1274,0.1304,0.1333,0.1343,0.1357,0.1385,0.1404,0.1426,0.1447,0.1486,0.151,0.1514,0.153,0.1519,0.1519,0.1524,0.1577,0.1577,0.1506,0.1506,0.1506,0.1506,0.1506,0.1506,0.1152,0.1158,0.1182,0.12,0.1225,0.1242,0.1255,0.1276,0.1299,0.1321,0.1339,0.1365,0.1397,0.1425,0.1445,0.1456,0.1463,0.1448,0.1463,0.1512,0.152,0.1528,0.1529,0.1449,0.1448,0.141,0.1409,0.1409]},{"header":{"parameterUnit":"m.s-1","parameterCategory":1,"la1":30.2991,"la2":30.254,"lo1":-89.0895,"lo2":-89.0444,"dy":0.0017,"dx":0.0017,"nx":28,"ny":28,"refTime":"2024-06-28T03:00:00:Z","depth":0,"parameterNumber":3,"parameterNumberName":"V-component_of_WINDS"},"data":[0,0,0,0,0,0,0,0,0,0,0,0,0,0,0,0,0,0,0,0,0,0,0,0,0,0,0,0,0,0,0,0,0,0,0,0,0,0,0,0,0,0,0,0,0,0,0,0,0,0,0,0,0,0,0,0,0,0,4.3378,4.3379,0,4.3427,4.3428,4.3429,4.3444,4.3443,4.3443,4.3443,4.3488,4.349,4.3491,0,0,0,0,0,0,0,0,0,0,0,0,0,4.3294,4.3295,4.3378,4.3379,4.338,4.3427,4.3428,4.3429,4.3444,4.3443,4.3443,4.3443,4.3488,4.349,4.3491,0,0,0,0,0,0,0,0,0,0,0,0,0,4.3335,4.3296,4.3378,4.3393,4.3395,4.3427,4.3428,4.3429,4.3444,4.3443,4.3443,4.3443,4.3487,4.349,4.3492,4.3512,0,0,4.3498,4.3499,0,0,0,0,0,0,0,0,4.3333,4.3338,4.339,4.3392,4.3394,4.3429,4.3415,4.3456,4.3444,4.3425,4.3443,4.3443,4.3469,4.3472,4.3482,4.3514,4.3516,4.3498,4.35,4.3501,4.3501,0,0,0,0,0,0,0,4.333,4.3336,4.3398,4.3391,4.3393,4.3396,4.3401,4.3423,4.3448,4.3427,4.3428,4.3434,4.347,4.348,4.3483,4.3516,4.3498,4.35,4.3502,4.3502,4.3568,4.3568,0,0,0,0,0,0,4.3325,4.3334,4.3396,4.3399,4.3362,4.3398,4.3404,4.3418,4.3448,4.3452,4.3434,4.3434,4.3477,4.3481,4.3485,4.3511,4.3501,4.3503,4.3504,4.3567,4.3568,4.3568,0,0,0,0,0,0,4.3323,4.3331,4.3394,4.3367,4.3375,4.3399,4.3415,4.3419,4.343,4.3453,4.3458,4.344,4.3477,4.3482,4.3505,4.3513,4.3504,4.3505,4.3567,4.3567,4.3568,4.3563,0,0,0,0,0,0,4.3321,4.333,4.3339,4.3367,4.3377,4.3415,4.3416,4.3421,4.3434,4.3435,4.346,4.3464,4.3477,4.3502,4.3508,4.3516,4.3507,4.3566,4.3567,4.3568,4.3563,4.3564,4.3564,0,0,0,0,0,4.3318,4.3334,4.3339,4.3346,4.3388,4.3415,4.3421,4.3436,4.3435,4.3443,4.3458,4.3463,4.3511,4.3504,4.3511,4.3519,4.3566,4.3567,4.3568,4.3562,4.3563,4.3564,0,0,0,0,0,0,4.3304,4.3338,4.3344,4.337,4.339,4.3418,4.3429,4.3436,4.3456,4.3455,4.3472,4.3478,4.35,4.3512,4.3504,4.3541,4.3539,4.3541,4.3532,4.3533,4.3534,4.3531,4.3509,0,0,0,0,0,4.3304,4.3325,4.3353,4.3373,4.3383,4.3404,4.3416,4.3427,4.3447,4.3455,4.3472,4.3491,4.351,4.3522,4.3541,4.3564,4.357,4.3574,4.3574,4.3575,4.3577,4.359,4.3592,4.3572,4.3572,4.3572,0,0,4.3304,4.3325,4.3337,4.3371,4.3387,4.3407,4.3411,4.3432,4.3446,4.3458,4.3482,4.3495,4.3517,4.354,4.3552,4.3551,4.3584,4.3576,4.3576,4.3578,4.3592,4.3594,4.3595,4.3572,4.3572,4.3572,0,0,4.3315,4.3333,4.3353,4.337,4.3396,4.341,4.3414,4.3442,4.3452,4.3476,4.3486,4.3502,4.3535,4.3551,4.3563,4.3581,4.3586,4.3586,4.359,4.3603,4.3605,4.3606,4.3613,4.3615,4.3588,4.3588,4.3588,0,4.3311,4.3343,4.3361,4.3382,4.3397,4.341,4.3429,4.3444,4.3474,4.3484,4.3483,4.3525,4.3541,4.3569,4.3573,4.3582,4.3588,4.3583,4.3604,4.3605,4.3607,4.3614,4.3616,4.3588,4.3588,4.3588,4.3588,0,4.3338,4.336,4.3372,4.3403,4.3419,4.3439,4.3459,4.3472,4.3481,4.3495,4.352,4.354,4.3563,4.357,4.3578,4.36,4.3599,4.36,4.3599,4.3609,4.3615,4.3618,4.3587,4.3587,4.3588,4.3588,0,0,4.334,4.3383,4.3387,4.3401,4.3431,4.3448,4.3468,4.3493,4.3505,4.3525,4.3542,4.357,4.3573,4.3586,4.3596,4.3608,4.3622,4.3608,4.3609,4.3611,4.3647,4.3645,4.3648,4.3625,4.3626,4.3626,4.3645,0,4.3355,4.3395,4.3412,4.3442,4.3463,4.3476,4.3494,4.3514,4.3527,4.3546,4.356,4.358,4.3581,4.359,4.3602,4.3617,4.3629,4.3616,4.3641,4.3642,4.3636,4.3652,4.365,4.3667,4.3648,4.3648,4.3648,0,4.3378,4.3401,4.3434,4.3463,4.3472,4.3488,4.3513,4.353,4.3553,4.3562,4.3578,4.3588,4.3609,4.3606,4.3635,4.3626,4.3637,4.3646,4.3647,4.365,4.3646,4.3655,4.3672,4.3675,4.3652,4.3652,4.3652,0,4.3378,4.3416,4.3442,4.3454,4.3487,4.3498,4.3513,4.3535,4.3549,4.357,4.358,4.3602,4.3614,4.3631,4.3646,4.3642,4.3674,4.3672,4.3681,4.3681,4.3688,4.3687,4.3707,4.3694,4.3694,4.3694,4.3694,0,4.3393,4.3413,4.3442,4.3458,4.348,4.3499,4.3521,4.3536,4.3556,4.3574,4.3585,4.3602,4.3621,4.3639,4.3651,4.3674,4.3679,4.3686,4.3689,4.3686,4.3685,4.3693,4.3693,4.3695,4.3694,4.3694,4.3694,0,4.3396,4.3417,4.3445,4.3476,4.3484,4.3499,4.3525,4.354,4.3554,4.3577,4.3583,4.3606,4.3628,4.3646,4.3674,4.3682,4.3706,4.3709,4.3699,4.3701,4.371,4.3709,4.3737,4.3741,4.3724,4.3724,4.3725,0,4.3405,4.3421,4.3454,4.3468,4.3483,4.3504,4.352,4.3539,4.3554,4.3581,4.3593,4.3617,4.3637,4.3672,4.369,4.3712,4.3716,4.3724,4.3719,4.3715,4.3716,4.3716,4.3718,4.3724,4.3724,4.3724,4.3725,0,4.3418,4.3428,4.345,4.3477,4.3495,4.3516,4.3537,4.3547,4.357,4.3586,4.361,4.3626,4.3656,4.368,4.3704,4.3717,4.3725,4.3726,4.373,4.3726,4.372,4.3724,4.3701,4.3725,4.3725,4.3725,4.3725,4.3725,4.3425,4.344,4.3466,4.3491,4.3509,4.3529,4.3545,4.3563,4.3584,4.3612,4.3621,4.3646,4.3668,4.3702,4.3716,4.3735,4.3735,4.374,4.3741,4.3742,4.3742,4.3717,4.3739,4.3739,4.3739,4.3739,4.3739,0,4.3439,4.3457,4.348,4.351,4.353,4.3537,4.3561,4.3576,4.3599,4.362,4.364,4.3668,4.3691,4.3711,4.3735,4.3746,4.375,4.3752,4.3752,4.3755,4.374,4.3735,4.3748,4.3748,4.3748,4.3748,4.3748,4.3748,4.3449,4.3476,4.3489,4.3525,4.3542,4.3568,4.3581,4.36,4.3617,4.3648,4.3668,4.3682,4.3703,4.3728,4.375,4.3755,4.3763,4.3764,4.377,4.3757,4.3755,4.3754,4.375,4.3766,4.3766,4.3783,4.3783,4.3783]}]]